OAL117 LEBA-LPCS

Flight info

Callsign OAL117
Flight time 1h 22m
Altitude 6000
Route WHISKY HOMACHUELOS RIOVIAR MONASTERIO FREGENAL MOURAO MAXED VALVE PINHEIRO SETUBAL FONTEDATELHA COVADOVAPOR CHARLE
Aircraft BE36/L-BDFGLORY/S

Departure

Time 2026-05-06 19:13
Airport Córdoba Airport (LEBA)

Arrival

Time 2026-05-06 20:36
Airport Cascais Airport (LPCS)
Time Latitude Longitude Altitude Speed Heading
2026-05-06 19:04 37.84500 -4.84401 299 ft 0 kts 207°
2026-05-06 19:07 37.84499 -4.84401 299 ft 0 kts 206°
2026-05-06 19:08 37.84487 -4.84408 299 ft 3 kts 223°
2026-05-06 19:08 37.84481 -4.84434 300 ft 4 kts 249°
2026-05-06 19:08 37.84475 -4.84452 299 ft 0 kts 248°
2026-05-06 19:09 37.84470 -4.84465 301 ft 5 kts 253°
2026-05-06 19:09 37.84489 -4.84520 299 ft 7 kts 299°
2026-05-06 19:09 37.84508 -4.84573 300 ft 6 kts 289°
2026-05-06 19:09 37.84540 -4.84621 297 ft 9 kts 341°
2026-05-06 19:10 37.84583 -4.84608 297 ft 13 kts 24°
2026-05-06 19:10 37.84658 -4.84561 296 ft 11 kts 29°
2026-05-06 19:10 37.84718 -4.84520 296 ft 10 kts 26°
2026-05-06 19:10 37.84810 -4.84454 293 ft 19 kts 31°
2026-05-06 19:11 37.84915 -4.84356 293 ft 11 kts 27°
2026-05-06 19:11 37.84936 -4.84375 295 ft 4 kts 226°
2026-05-06 19:11 37.84933 -4.84377 295 ft 0 kts 208°
2026-05-06 19:11 37.84818 -4.84456 296 ft 46 kts 208°
2026-05-06 19:12 37.84398 -4.84739 315 ft 85 kts 204°
2026-05-06 19:12 37.83903 -4.85195 411 ft 98 kts 236°
2026-05-06 19:12 37.83773 -4.86082 482 ft 109 kts 258°
2026-05-06 19:12 37.83586 -4.87077 506 ft 124 kts 254°
2026-05-06 19:13 37.83355 -4.88153 610 ft 128 kts 253°
2026-05-06 19:13 37.83101 -4.89228 739 ft 127 kts 252°
2026-05-06 19:13 37.82841 -4.90289 865 ft 127 kts 252°
2026-05-06 19:13 37.82577 -4.91358 990 ft 128 kts 251°
2026-05-06 19:14 37.82304 -4.92451 1118 ft 131 kts 251°
2026-05-06 19:14 37.82025 -4.93563 1247 ft 134 kts 252°
2026-05-06 19:14 37.81745 -4.94688 1373 ft 136 kts 252°
2026-05-06 19:14 37.81464 -4.95806 1498 ft 134 kts 251°
2026-05-06 19:15 37.81182 -4.96931 1633 ft 134 kts 251°
2026-05-06 19:15 37.80902 -4.98048 1752 ft 132 kts 251°
2026-05-06 19:15 37.80619 -4.99178 1868 ft 139 kts 251°
2026-05-06 19:15 37.80321 -5.00372 1991 ft 145 kts 251°
2026-05-06 19:16 37.80055 -5.01621 2117 ft 150 kts 263°
2026-05-06 19:16 37.80182 -5.02941 2248 ft 153 kts 278°
2026-05-06 19:16 37.80379 -5.04279 2375 ft 156 kts 277°
2026-05-06 19:16 37.80567 -5.05632 2504 ft 157 kts 278°
2026-05-06 19:17 37.80763 -5.06992 2630 ft 158 kts 278°
2026-05-06 19:17 37.80960 -5.08359 2757 ft 158 kts 278°
2026-05-06 19:17 37.81157 -5.09725 2883 ft 159 kts 278°
2026-05-06 19:17 37.81355 -5.11108 3011 ft 160 kts 278°
2026-05-06 19:18 37.81555 -5.12486 3141 ft 159 kts 279°
2026-05-06 19:18 37.81750 -5.13877 3263 ft 162 kts 278°
2026-05-06 19:18 37.81948 -5.15275 3387 ft 161 kts 278°
2026-05-06 19:18 37.82147 -5.16671 3510 ft 162 kts 278°
2026-05-06 19:19 37.82343 -5.18048 3632 ft 161 kts 278°
2026-05-06 19:19 37.82543 -5.19441 3759 ft 160 kts 279°
2026-05-06 19:19 37.82743 -5.20830 3881 ft 160 kts 278°
2026-05-06 19:19 37.82939 -5.22207 4002 ft 159 kts 277°
2026-05-06 19:20 37.83133 -5.23580 4128 ft 158 kts 278°
2026-05-06 19:20 37.83328 -5.24944 4254 ft 157 kts 278°
2026-05-06 19:20 37.83639 -5.26260 4377 ft 156 kts 285°
2026-05-06 19:20 37.83953 -5.27563 4502 ft 154 kts 284°
2026-05-06 19:21 37.84272 -5.28888 4517 ft 161 kts 284°
2026-05-06 19:21 37.84603 -5.30255 4527 ft 167 kts 285°
2026-05-06 19:21 37.84947 -5.31690 4525 ft 169 kts 285°
2026-05-06 19:21 37.85292 -5.33116 4528 ft 170 kts 285°
2026-05-06 19:22 37.85634 -5.34539 4528 ft 171 kts 285°
2026-05-06 19:22 37.85986 -5.35984 4527 ft 172 kts 285°
2026-05-06 19:22 37.86335 -5.37446 4529 ft 174 kts 284°
2026-05-06 19:22 37.86685 -5.38913 4523 ft 174 kts 284°
2026-05-06 19:23 37.87035 -5.40376 4526 ft 173 kts 284°
2026-05-06 19:23 37.87386 -5.41828 4519 ft 171 kts 286°
2026-05-06 19:23 37.87733 -5.43270 4524 ft 172 kts 285°
2026-05-06 19:23 37.88077 -5.44717 4531 ft 172 kts 284°
2026-05-06 19:24 37.88426 -5.46169 4526 ft 172 kts 284°
2026-05-06 19:24 37.88771 -5.47613 4536 ft 171 kts 284°
2026-05-06 19:24 37.89111 -5.49046 4530 ft 172 kts 285°
2026-05-06 19:24 37.89462 -5.50495 4529 ft 172 kts 285°
2026-05-06 19:25 37.89806 -5.51953 4533 ft 174 kts 285°
2026-05-06 19:25 37.90161 -5.53422 4533 ft 175 kts 285°
2026-05-06 19:25 37.90515 -5.54895 4521 ft 174 kts 284°
2026-05-06 19:25 37.90862 -5.56348 4527 ft 171 kts 285°
2026-05-06 19:26 37.91208 -5.57792 4529 ft 172 kts 283°
2026-05-06 19:26 37.91546 -5.59236 4524 ft 171 kts 284°
2026-05-06 19:26 37.91891 -5.60682 4521 ft 171 kts 284°
2026-05-06 19:26 37.92234 -5.62126 4521 ft 171 kts 283°
2026-05-06 19:27 37.92573 -5.63568 4527 ft 172 kts 285°
2026-05-06 19:27 37.92911 -5.64985 4528 ft 169 kts 285°
2026-05-06 19:27 37.93255 -5.66418 4531 ft 171 kts 284°
2026-05-06 19:27 37.93598 -5.67865 4532 ft 173 kts 284°
2026-05-06 19:28 37.93949 -5.69322 4530 ft 173 kts 284°
2026-05-06 19:28 37.94292 -5.70783 4532 ft 174 kts 284°
2026-05-06 19:28 37.94638 -5.72246 4534 ft 173 kts 285°
2026-05-06 19:28 37.94982 -5.73712 4527 ft 174 kts 284°
2026-05-06 19:29 37.95329 -5.75177 4528 ft 173 kts 284°
2026-05-06 19:29 37.95676 -5.76637 4528 ft 172 kts 284°
2026-05-06 19:29 37.96021 -5.78094 4527 ft 173 kts 284°
2026-05-06 19:29 37.96367 -5.79553 4533 ft 173 kts 283°
2026-05-06 19:30 37.96711 -5.81015 4532 ft 173 kts 284°
2026-05-06 19:30 37.97058 -5.82482 4528 ft 174 kts 284°
2026-05-06 19:30 37.97406 -5.83964 4528 ft 176 kts 284°
2026-05-06 19:30 37.97753 -5.85451 4526 ft 175 kts 285°
2026-05-06 19:31 37.98106 -5.86923 4525 ft 175 kts 284°
2026-05-06 19:31 37.98457 -5.88412 4529 ft 177 kts 284°
2026-05-06 19:31 37.99156 -5.91401 4527 ft 176 kts 284°
2026-05-06 19:32 37.99502 -5.92875 4529 ft 177 kts 284°
2026-05-06 19:32 37.99852 -5.94361 4528 ft 176 kts 284°
2026-05-06 19:32 38.00233 -5.95831 4527 ft 175 kts 288°
2026-05-06 19:32 38.00618 -5.97287 4520 ft 174 kts 286°
2026-05-06 19:33 38.00992 -5.98736 4528 ft 172 kts 285°
2026-05-06 19:33 38.01372 -6.00180 4529 ft 173 kts 287°
2026-05-06 19:33 38.01755 -6.01630 4525 ft 173 kts 286°
2026-05-06 19:33 38.02137 -6.03076 4526 ft 173 kts 286°
2026-05-06 19:34 38.02519 -6.04518 4532 ft 173 kts 287°
2026-05-06 19:34 38.02895 -6.05944 4527 ft 172 kts 287°
2026-05-06 19:34 38.03269 -6.07373 4527 ft 170 kts 287°
2026-05-06 19:34 38.03643 -6.08796 4527 ft 170 kts 287°
2026-05-06 19:35 38.04021 -6.10222 4528 ft 171 kts 288°
2026-05-06 19:35 38.04398 -6.11655 4524 ft 171 kts 288°
2026-05-06 19:35 38.04772 -6.13079 4526 ft 170 kts 288°
2026-05-06 19:35 38.05147 -6.14508 4524 ft 170 kts 288°
2026-05-06 19:36 38.05523 -6.15929 4527 ft 170 kts 288°
2026-05-06 19:36 38.05891 -6.17346 4525 ft 168 kts 288°
2026-05-06 19:36 38.06258 -6.18748 4523 ft 167 kts 289°
2026-05-06 19:36 38.06627 -6.20149 4521 ft 167 kts 289°
2026-05-06 19:37 38.06984 -6.21541 4526 ft 166 kts 289°
2026-05-06 19:37 38.07344 -6.22934 4521 ft 165 kts 289°
2026-05-06 19:37 38.07700 -6.24328 4526 ft 166 kts 289°
2026-05-06 19:37 38.07937 -6.25257 4530 ft 168 kts 289°
2026-05-06 19:38 38.08417 -6.27141 4530 ft 169 kts 289°
2026-05-06 19:38 38.08776 -6.28566 4528 ft 169 kts 289°
2026-05-06 19:38 38.09135 -6.29993 4533 ft 169 kts 289°
2026-05-06 19:38 38.09492 -6.31413 4532 ft 170 kts 289°
2026-05-06 19:39 38.09849 -6.32839 4531 ft 169 kts 289°
2026-05-06 19:39 38.10204 -6.34265 4532 ft 170 kts 289°
2026-05-06 19:39 38.10559 -6.35687 4533 ft 169 kts 289°
2026-05-06 19:39 38.10900 -6.37070 4532 ft 166 kts 289°
2026-05-06 19:40 38.11246 -6.38481 4531 ft 168 kts 289°
2026-05-06 19:40 38.11591 -6.39899 4531 ft 168 kts 289°
2026-05-06 19:40 38.11935 -6.41316 4532 ft 168 kts 289°
2026-05-06 19:40 38.12278 -6.42738 4531 ft 168 kts 289°
2026-05-06 19:41 38.12622 -6.44159 4531 ft 168 kts 289°
2026-05-06 19:41 38.12829 -6.45615 4530 ft 170 kts 270°
2026-05-06 19:41 38.12830 -6.47109 4532 ft 169 kts 280°
2026-05-06 19:41 38.13100 -6.48558 4532 ft 168 kts 288°
2026-05-06 19:42 38.13417 -6.49991 4533 ft 169 kts 287°
2026-05-06 19:42 38.13731 -6.51427 4532 ft 169 kts 287°
2026-05-06 19:42 38.14045 -6.52868 4531 ft 169 kts 287°
2026-05-06 19:42 38.14358 -6.54313 4534 ft 169 kts 287°
2026-05-06 19:43 38.14668 -6.55752 4531 ft 169 kts 287°
2026-05-06 19:43 38.14981 -6.57189 4532 ft 169 kts 287°
2026-05-06 19:43 38.15287 -6.58609 4535 ft 169 kts 287°
2026-05-06 19:43 38.15598 -6.60050 4535 ft 170 kts 287°
2026-05-06 19:44 38.15910 -6.61495 4534 ft 169 kts 287°
2026-05-06 19:44 38.16223 -6.62943 4531 ft 170 kts 287°
2026-05-06 19:44 38.16534 -6.64388 4535 ft 170 kts 287°
2026-05-06 19:44 38.16912 -6.65805 4535 ft 169 kts 294°
2026-05-06 19:45 38.17357 -6.67193 4534 ft 170 kts 293°
2026-05-06 19:45 38.17791 -6.68585 4531 ft 169 kts 293°
2026-05-06 19:45 38.18225 -6.69975 4538 ft 169 kts 293°
2026-05-06 19:45 38.18659 -6.71361 4534 ft 169 kts 293°
2026-05-06 19:46 38.19094 -6.72755 4535 ft 169 kts 293°
2026-05-06 19:46 38.19530 -6.74149 4535 ft 170 kts 293°
2026-05-06 19:46 38.19964 -6.75540 4534 ft 170 kts 293°
2026-05-06 19:46 38.20399 -6.76937 4530 ft 169 kts 293°
2026-05-06 19:47 38.20831 -6.78317 4537 ft 170 kts 293°
2026-05-06 19:47 38.21266 -6.79711 4534 ft 169 kts 293°
2026-05-06 19:47 38.21700 -6.81104 4540 ft 169 kts 293°
2026-05-06 19:47 38.22134 -6.82499 4535 ft 169 kts 293°
2026-05-06 19:48 38.22568 -6.83892 4532 ft 169 kts 293°
2026-05-06 19:48 38.23002 -6.85286 4532 ft 169 kts 293°
2026-05-06 19:48 38.23429 -6.86659 4534 ft 169 kts 293°
2026-05-06 19:48 38.23860 -6.88048 4534 ft 168 kts 293°
2026-05-06 19:49 38.24292 -6.89436 4535 ft 169 kts 293°
2026-05-06 19:49 38.24723 -6.90826 4537 ft 168 kts 293°
2026-05-06 19:49 38.25155 -6.92213 4534 ft 169 kts 293°
2026-05-06 19:49 38.25587 -6.93611 4534 ft 169 kts 293°
2026-05-06 19:50 38.26019 -6.95000 4538 ft 168 kts 293°
2026-05-06 19:50 38.26449 -6.96384 4531 ft 167 kts 293°
2026-05-06 19:50 38.26874 -6.97759 4537 ft 167 kts 293°
2026-05-06 19:50 38.27300 -6.99136 4532 ft 167 kts 293°
2026-05-06 19:51 38.27729 -7.00521 4503 ft 170 kts 293°
2026-05-06 19:51 38.28168 -7.01939 4405 ft 174 kts 294°
2026-05-06 19:51 38.28618 -7.03389 4304 ft 177 kts 293°
2026-05-06 19:51 38.29069 -7.04848 4210 ft 177 kts 293°
2026-05-06 19:52 38.29520 -7.06308 4112 ft 178 kts 293°
2026-05-06 19:52 38.29973 -7.07779 4007 ft 179 kts 293°
2026-05-06 19:52 38.30420 -7.09228 3911 ft 177 kts 293°
2026-05-06 19:52 38.30870 -7.10685 3810 ft 177 kts 293°
2026-05-06 19:53 38.31319 -7.12142 3713 ft 177 kts 293°
2026-05-06 19:53 38.31768 -7.13597 3614 ft 176 kts 293°
2026-05-06 19:53 38.32215 -7.15053 3514 ft 176 kts 293°
2026-05-06 19:53 38.32663 -7.16506 3416 ft 176 kts 293°
2026-05-06 19:54 38.33108 -7.17954 3318 ft 175 kts 293°
2026-05-06 19:54 38.33544 -7.19378 3216 ft 173 kts 292°
2026-05-06 19:54 38.33982 -7.20806 3120 ft 173 kts 293°
2026-05-06 19:54 38.34423 -7.22229 3016 ft 172 kts 293°
2026-05-06 19:55 38.34858 -7.23649 2914 ft 172 kts 294°
2026-05-06 19:55 38.35294 -7.25064 2819 ft 172 kts 294°
2026-05-06 19:55 38.35727 -7.26482 2725 ft 171 kts 293°
2026-05-06 19:55 38.36157 -7.27889 2616 ft 170 kts 293°
2026-05-06 19:56 38.36586 -7.29285 2539 ft 168 kts 294°
2026-05-06 19:56 38.37001 -7.30643 2545 ft 165 kts 294°
2026-05-06 19:56 38.37417 -7.32003 2542 ft 164 kts 294°
2026-05-06 19:56 38.37829 -7.33348 2534 ft 163 kts 294°
2026-05-06 19:57 38.38161 -7.34434 2545 ft 163 kts 294°
2026-05-06 19:57 38.38279 -7.34822 2536 ft 162 kts 294°
2026-05-06 19:57 38.38719 -7.36144 2546 ft 161 kts 295°
2026-05-06 19:57 38.39140 -7.37467 2546 ft 161 kts 294°
2026-05-06 19:58 38.39565 -7.38797 2508 ft 162 kts 295°
2026-05-06 19:58 38.39989 -7.40115 2509 ft 160 kts 295°
2026-05-06 19:58 38.40545 -7.41833 2508 ft 158 kts 295°
2026-05-06 19:58 38.40827 -7.42704 2479 ft 158 kts 295°
2026-05-06 19:59 38.41248 -7.44009 2448 ft 159 kts 295°
2026-05-06 19:59 38.41662 -7.45288 2451 ft 157 kts 295°
2026-05-06 19:59 38.42079 -7.46577 2446 ft 157 kts 295°
2026-05-06 19:59 38.42493 -7.47862 2452 ft 156 kts 295°
2026-05-06 20:00 38.42905 -7.49141 2456 ft 156 kts 295°
2026-05-06 20:00 38.43319 -7.50424 2456 ft 157 kts 295°
2026-05-06 20:00 38.43735 -7.51715 2457 ft 157 kts 296°
2026-05-06 20:00 38.44149 -7.53002 2455 ft 156 kts 296°
2026-05-06 20:01 38.44558 -7.54273 2457 ft 156 kts 296°
2026-05-06 20:01 38.44970 -7.55552 2468 ft 156 kts 296°
2026-05-06 20:01 38.45380 -7.56826 2458 ft 155 kts 295°
2026-05-06 20:01 38.45781 -7.58073 2467 ft 153 kts 295°
2026-05-06 20:02 38.46184 -7.59331 2466 ft 153 kts 295°
2026-05-06 20:02 38.46590 -7.60591 2468 ft 154 kts 295°
2026-05-06 20:02 38.46998 -7.61863 2469 ft 155 kts 295°
2026-05-06 20:02 38.47410 -7.63148 2463 ft 156 kts 295°
2026-05-06 20:03 38.47819 -7.64423 2461 ft 155 kts 296°
2026-05-06 20:03 38.48226 -7.65685 2457 ft 153 kts 297°
2026-05-06 20:03 38.48624 -7.66933 2458 ft 151 kts 297°
2026-05-06 20:03 38.49024 -7.68179 2467 ft 151 kts 297°
2026-05-06 20:04 38.49423 -7.69426 2471 ft 152 kts 296°
2026-05-06 20:04 38.49821 -7.70671 2464 ft 151 kts 296°
2026-05-06 20:04 38.50218 -7.71911 2468 ft 151 kts 296°
2026-05-06 20:04 38.50616 -7.73159 2477 ft 152 kts 296°
2026-05-06 20:05 38.51019 -7.74414 2470 ft 153 kts 296°
2026-05-06 20:05 38.51418 -7.75664 2470 ft 151 kts 296°
2026-05-06 20:05 38.51817 -7.76913 2469 ft 151 kts 296°
2026-05-06 20:05 38.52215 -7.78157 2470 ft 151 kts 296°
2026-05-06 20:06 38.52611 -7.79403 2475 ft 152 kts 296°
2026-05-06 20:06 38.53008 -7.80645 2475 ft 153 kts 296°
2026-05-06 20:06 38.53315 -7.81954 2476 ft 157 kts 282°
2026-05-06 20:06 38.53328 -7.83359 2475 ft 158 kts 276°
2026-05-06 20:07 38.53333 -7.84768 2475 ft 159 kts 276°
2026-05-06 20:07 38.53336 -7.86174 2475 ft 159 kts 276°
2026-05-06 20:07 38.53335 -7.87588 2478 ft 159 kts 276°
2026-05-06 20:07 38.53338 -7.89001 2478 ft 159 kts 276°
2026-05-06 20:08 38.53335 -7.90420 2478 ft 160 kts 275°
2026-05-06 20:08 38.53337 -7.91846 2482 ft 160 kts 275°
2026-05-06 20:08 38.53338 -7.93271 2479 ft 161 kts 275°
2026-05-06 20:08 38.53339 -7.94709 2481 ft 162 kts 276°
2026-05-06 20:09 38.53332 -7.96154 2486 ft 163 kts 276°
2026-05-06 20:09 38.53335 -7.97604 2482 ft 163 kts 277°
2026-05-06 20:09 38.53339 -7.99052 2474 ft 163 kts 275°
2026-05-06 20:09 38.53333 -8.00506 2484 ft 164 kts 275°
2026-05-06 20:10 38.53330 -8.01970 2488 ft 166 kts 273°
2026-05-06 20:10 38.53286 -8.03458 2489 ft 169 kts 275°
2026-05-06 20:10 38.53257 -8.04951 2490 ft 170 kts 275°
2026-05-06 20:10 38.53228 -8.06473 2492 ft 172 kts 274°
2026-05-06 20:11 38.53197 -8.07980 2442 ft 172 kts 274°
2026-05-06 20:11 38.53165 -8.09502 2412 ft 171 kts 273°
2026-05-06 20:11 38.53128 -8.11035 2362 ft 173 kts 275°
2026-05-06 20:11 38.53094 -8.12561 2308 ft 171 kts 274°
2026-05-06 20:12 38.53059 -8.14070 2265 ft 170 kts 275°
2026-05-06 20:12 38.53027 -8.15580 2212 ft 170 kts 273°
2026-05-06 20:12 38.52992 -8.17098 2159 ft 171 kts 273°
2026-05-06 20:12 38.52956 -8.18621 2115 ft 172 kts 274°
2026-05-06 20:13 38.52921 -8.20118 2055 ft 168 kts 274°
2026-05-06 20:13 38.52883 -8.21597 1994 ft 166 kts 274°
2026-05-06 20:13 38.52853 -8.23033 1993 ft 162 kts 274°
2026-05-06 20:13 38.52820 -8.24474 1995 ft 162 kts 275°
2026-05-06 20:14 38.52788 -8.25915 2000 ft 162 kts 275°
2026-05-06 20:14 38.52753 -8.27354 1996 ft 162 kts 275°
2026-05-06 20:14 38.52719 -8.28792 1998 ft 162 kts 273°
2026-05-06 20:14 38.52684 -8.30230 1996 ft 161 kts 274°
2026-05-06 20:15 38.52652 -8.31625 1995 ft 160 kts 275°
2026-05-06 20:15 38.52619 -8.33021 1997 ft 159 kts 274°
2026-05-06 20:15 38.52582 -8.34438 1993 ft 160 kts 274°
2026-05-06 20:15 38.52546 -8.35851 1999 ft 159 kts 274°
2026-05-06 20:16 38.52513 -8.37272 2003 ft 161 kts 276°
2026-05-06 20:16 38.52481 -8.38704 2005 ft 162 kts 275°
2026-05-06 20:16 38.52441 -8.40129 2000 ft 162 kts 275°
2026-05-06 20:16 38.52408 -8.41554 1996 ft 160 kts 275°
2026-05-06 20:17 38.52373 -8.42971 2003 ft 160 kts 276°
2026-05-06 20:17 38.52338 -8.44363 2004 ft 158 kts 274°
2026-05-06 20:17 38.52301 -8.45775 2005 ft 159 kts 275°
2026-05-06 20:17 38.52277 -8.47186 2007 ft 158 kts 275°
2026-05-06 20:18 38.52260 -8.48602 2021 ft 160 kts 275°
2026-05-06 20:18 38.52239 -8.50033 2033 ft 161 kts 275°
2026-05-06 20:18 38.52215 -8.51465 2035 ft 162 kts 275°
2026-05-06 20:18 38.52194 -8.52892 2018 ft 163 kts 275°
2026-05-06 20:19 38.52183 -8.54332 2014 ft 162 kts 275°
2026-05-06 20:19 38.52167 -8.55754 2011 ft 158 kts 275°
2026-05-06 20:19 38.52141 -8.57160 2011 ft 159 kts 275°
2026-05-06 20:19 38.52110 -8.58572 2010 ft 159 kts 275°
2026-05-06 20:20 38.52080 -8.59996 2011 ft 162 kts 275°
2026-05-06 20:20 38.52047 -8.61436 2013 ft 162 kts 275°
2026-05-06 20:20 38.52010 -8.62879 2016 ft 163 kts 275°
2026-05-06 20:20 38.51974 -8.64315 2012 ft 161 kts 275°
2026-05-06 20:21 38.51948 -8.65747 2010 ft 161 kts 275°
2026-05-06 20:21 38.51913 -8.67178 2016 ft 162 kts 275°
2026-05-06 20:21 38.51889 -8.68624 2011 ft 164 kts 275°
2026-05-06 20:21 38.51856 -8.70082 2012 ft 164 kts 275°
2026-05-06 20:22 38.51764 -8.71519 2014 ft 165 kts 269°
2026-05-06 20:22 38.51620 -8.72967 2014 ft 165 kts 268°
2026-05-06 20:22 38.51446 -8.74415 2014 ft 166 kts 268°
2026-05-06 20:22 38.51280 -8.75879 2011 ft 168 kts 268°
2026-05-06 20:23 38.51117 -8.77363 2021 ft 170 kts 269°
2026-05-06 20:23 38.50971 -8.78870 2021 ft 171 kts 270°
2026-05-06 20:23 38.50848 -8.80374 2017 ft 170 kts 273°
2026-05-06 20:23 38.50798 -8.81865 2018 ft 167 kts 274°
2026-05-06 20:24 38.50772 -8.83354 2023 ft 168 kts 275°
2026-05-06 20:24 38.50780 -8.84848 2026 ft 169 kts 277°
2026-05-06 20:24 38.50825 -8.86348 2016 ft 167 kts 281°
2026-05-06 20:24 38.50986 -8.87801 2020 ft 165 kts 285°
2026-05-06 20:25 38.51174 -8.89244 2019 ft 165 kts 285°
2026-05-06 20:25 38.51373 -8.90678 2016 ft 164 kts 286°
2026-05-06 20:25 38.51568 -8.92089 2016 ft 163 kts 286°
2026-05-06 20:25 38.51775 -8.93516 2015 ft 163 kts 289°
2026-05-06 20:26 38.52041 -8.94925 2019 ft 163 kts 289°
2026-05-06 20:26 38.52294 -8.96339 2017 ft 164 kts 289°
2026-05-06 20:26 38.52551 -8.97753 2015 ft 163 kts 289°
2026-05-06 20:26 38.52799 -8.99151 2019 ft 162 kts 289°
2026-05-06 20:27 38.53047 -9.00557 2016 ft 163 kts 289°
2026-05-06 20:27 38.53291 -9.01971 2014 ft 163 kts 289°
2026-05-06 20:27 38.53539 -9.03383 2014 ft 163 kts 289°
2026-05-06 20:27 38.53782 -9.04791 2014 ft 162 kts 289°
2026-05-06 20:28 38.54025 -9.06192 2016 ft 161 kts 289°
2026-05-06 20:28 38.54268 -9.07591 2015 ft 162 kts 288°
2026-05-06 20:28 38.54526 -9.08994 2016 ft 162 kts 289°
2026-05-06 20:28 38.54790 -9.10390 2017 ft 161 kts 289°
2026-05-06 20:29 38.55046 -9.11788 2021 ft 162 kts 288°
2026-05-06 20:29 38.55299 -9.13165 2014 ft 160 kts 289°
2026-05-06 20:29 38.55553 -9.14533 2013 ft 157 kts 289°
2026-05-06 20:29 38.55786 -9.15913 2012 ft 161 kts 287°
2026-05-06 20:30 38.55964 -9.17329 2017 ft 163 kts 285°
2026-05-06 20:30 38.56301 -9.20207 2020 ft 166 kts 282°
2026-05-06 20:30 38.56416 -9.21671 2036 ft 164 kts 282°
2026-05-06 20:31 38.56529 -9.23115 2036 ft 162 kts 282°
2026-05-06 20:31 38.56632 -9.24538 2033 ft 160 kts 284°
2026-05-06 20:31 38.56932 -9.25869 2033 ft 153 kts 301°
2026-05-06 20:31 38.57450 -9.27024 2034 ft 148 kts 305°
2026-05-06 20:32 38.57961 -9.28160 2033 ft 147 kts 305°
2026-05-06 20:32 38.58494 -9.29272 2031 ft 146 kts 311°
2026-05-06 20:32 38.59171 -9.30199 2036 ft 144 kts 322°
2026-05-06 20:32 38.59972 -9.30943 2034 ft 141 kts 337°
2026-05-06 20:33 38.60889 -9.31355 2034 ft 138 kts 341°
2026-05-06 20:33 38.61795 -9.31714 2032 ft 135 kts 343°
2026-05-06 20:33 38.62702 -9.32007 2032 ft 134 kts 348°
2026-05-06 20:33 38.63614 -9.32235 2035 ft 133 kts 348°
2026-05-06 20:34 38.64523 -9.32486 2036 ft 134 kts 346°
2026-05-06 20:34 38.65443 -9.32786 1979 ft 140 kts 346°
2026-05-06 20:34 38.66399 -9.33088 1908 ft 143 kts 351°
2026-05-06 20:34 38.67389 -9.33260 1835 ft 144 kts 353°
2026-05-06 20:35 38.68371 -9.33519 1762 ft 145 kts 342°
2026-05-06 20:35 38.69329 -9.33914 1686 ft 144 kts 346°
2026-05-06 20:35 38.70242 -9.34404 1220 ft 139 kts 315°
2026-05-06 20:35 38.70996 -9.34994 691 ft 121 kts 342°
2026-05-06 20:36 38.71740 -9.35246 402 ft 100 kts 345°
2026-05-06 20:36 38.72311 -9.35455 338 ft 72 kts 348°
2026-05-06 20:36 38.72712 -9.35601 320 ft 49 kts 352°
2026-05-06 20:36 38.72892 -9.35647 322 ft 12 kts 351°
2026-05-06 20:37 38.72954 -9.35661 322 ft 7 kts 347°
2026-05-06 20:37 38.72944 -9.35687 323 ft 7 kts 158°
2026-05-06 20:37 38.72882 -9.35648 322 ft 11 kts 150°
2026-05-06 20:37 38.72808 -9.35611 320 ft 11 kts 165°
2026-05-06 20:38 38.72734 -9.35588 320 ft 11 kts 164°
2026-05-06 20:38 38.72700 -9.35576 320 ft 2 kts 154°
2026-05-06 20:38 38.72676 -9.35539 320 ft 5 kts 136°
2026-05-06 20:38 38.72648 -9.35517 320 ft 5 kts 159°
2026-05-06 20:39 38.72597 -9.35495 320 ft 8 kts 175°
2026-05-06 20:39 38.72538 -9.35478 320 ft 8 kts 160°
2026-05-06 20:39 38.72488 -9.35459 320 ft 7 kts 163°
2026-05-06 20:39 38.72444 -9.35441 320 ft 7 kts 165°
2026-05-06 20:40 38.72399 -9.35427 320 ft 6 kts 165°
2026-05-06 20:40 38.72357 -9.35413 321 ft 6 kts 165°
2026-05-06 20:40 38.72323 -9.35382 320 ft 6 kts 98°
2026-05-06 20:40 38.72309 -9.35353 320 ft 6 kts 134°
2026-05-06 20:41 38.72304 -9.35317 320 ft 0 kts 36°
2026-05-06 20:41 38.72308 -9.35316 320 ft 0 kts 353°